Location: Unspecified
(0.0000°N, 0.0000°E)
Time: 14:02:16
(UTC+02:00)

NOAA 12 - Visible Passes

Search period start: 31 May 2016 00:00
Search period end: 10 June 2016 00:00
Orbit: 796 x 815 km, 98.6° (Epoch: 30 May)

Date Brightness Start Highest point End Pass type
(mag) Time Alt. Az. Time Alt. Az. Time Alt. Az.
31 May 5.6 21:48:04 10° SSW 21:52:42 32° WSW 21:57:20 10° NW visible
01 Jun 4.4 21:22:38 10° S 21:27:49 66° WSW 21:33:00 10° NNW visible
02 Jun 4.1 20:57:45 10° SSE 21:02:55 63° ENE 21:08:06 10° N visible
03 Jun 4.9 20:33:28 10° SE 20:38:03 31° ENE 20:42:37 10° NNE visible
03 Jun 6.6 22:14:23 10° SW 22:17:33 16° WSW 22:20:44 10° WNW visible
04 Jun 5.6 21:48:04 10° SSW 21:52:41 32° WSW 21:57:19 10° NW visible
05 Jun 4.4 21:22:36 10° S 21:27:48 65° WSW 21:33:00 10° NNW visible
06 Jun 4.1 20:57:44 10° SSE 21:02:55 63° ENE 21:08:06 10° N visible
07 Jun 4.9 20:33:26 10° SE 20:38:02 31° ENE 20:42:37 10° NNE visible
07 Jun 6.6 22:14:22 10° SW 22:17:32 16° WSW 22:20:44 10° WNW visible
08 Jun 5.6 21:48:02 10° SSW 21:52:40 32° WSW 21:57:19 10° NW visible
09 Jun 4.4 21:22:35 10° S 21:27:47 65° WSW 21:32:59 10° NNW visible
